Regional Weather Roundup
Issued by NWS Cleveland, OH

Home | Current Version | Previous Version | Graphics & Text | Print | Product List | Glossary On
Versions: 1 2 3 4 5 6 7 8 9 10 11 12 13 14 15 16 17 18 19 20 21 22 23 24 25 26 27 28 29 30 31 32 33 34 35 36 37 38 39 40 41 42 43 44 45 46 47 48 49 50
000
ASUS41 KCLE 270410
RWRCLE
OHIO REGIONAL WEATHER ROUNDUP
NATIONAL WEATHER SERVICE WILMINGTON, OH
1200 AM EDT WED MAY 27 2015

NOTE: "FAIR" INDICATES FEW OR NO CLOUDS BELOW 12,000 FEET WITH NO
SIGNIFICANT WEATHER AND/OR OBSTRUCTIONS TO VISIBILITY.

OHZ001>008-015>018-024>027-034-035-043-044-270500-
   NORTHWEST OHIO

CITY           SKY/WX    TMP DP  RH WIND       PRES   REMARKS
DEFIANCE       CLOUDY    71  65  81 SW14      29.95R
FINDLAY        CLOUDY    71  66  84 S16       29.97R
TOLEDO EXPRESS CLOUDY    70  65  84 S13G21    29.93R
TOLEDO EXEC    CLOUDY    71  65  81 S14       29.95R
LIMA           CLOUDY    69  66  90 S12       29.98S
$$

OHZ009>014-019>023-028>033-038-089-270500-
   NORTHEAST OHIO

CITY           SKY/WX    TMP DP  RH WIND       PRES   REMARKS
CLE-HOPKINS    LGT RAIN  69  65  86 S13       30.02R
CLE-LAKEFRONT  RAIN      72  65  78 S16       30.00R
CUY CO. ARPT   NOT AVBL
LORAIN-ELYRIA  LGT RAIN  68  65  90 S13       30.00S
ASHTABULA      TSTM      69  65  86 SW14G28   30.04R FOG
AKRON-CANTON   RAIN      68  65  90 SW8       30.05F FOG
WOOSTER        CLOUDY    67  65  93 S7        30.03F
MANSFIELD      CLOUDY    67  66  97 S12       30.02F
YOUNGSTOWN     TSTM      70  66  87 SW16G31   30.07R
$$

OHZ042-051>053-060>062-070>072-077>081-270500-
  SOUTHWEST OHIO

CITY           SKY/WX    TMP DP  RH WIND       PRES   REMARKS
CINC-COVINGTON CLOUDY    67  65  93 S9        30.04S
CINC-LUNKEN    CLOUDY    67  66  97 SW9       30.04S
HAMILTON       CLOUDY    69  66  90 SW6       30.04R
DAYTON         CLOUDY    70  67  90 SW14      30.02S
WRIGHT-PAT AFB CLOUDY    69  67  94 S10       30.01S
DAYTON GENERAL CLOUDY    68  66  93 S8        30.02S
WILMINGTON     CLOUDY    66  63  90 SW10      30.04R
$$

OHZ036-037-039>041-045>050-054>059-063>069-073>076-082>088-270500-
  CENTRAL AND SOUTHEAST OHIO

CITY           SKY/WX    TMP DP  RH WIND       PRES   REMARKS
COLUMBUS       CLOUDY    68  66  93 S6        30.02F
OSU AIRPORT    CLOUDY    68  66  93 S6        30.02F
BOLTON FIELD   NOT AVBL
RICKENBACK AFB CLOUDY    67  65  96 S9        30.03S
NEWARK         CLOUDY    68  65  90 SE3       30.04F
MARION         CLOUDY    68  66  93 S12       30.01S
LANCASTER      CLOUDY    68  65  90 S6        30.05F
ZANESVILLE     CLOUDY    67  64  90 SE6       30.07S
NEW PHILLY     NOT AVBL
$$


USA.gov is the U.S. government's official web portal to all federal, state and local government web resources and services.